Flag for Canada Weather past 2 weeks in Richmond, British Columbia, Canada

Now
55 °F

Overcast.


Feels Like: 53 °F
Forecast: 54 / 64 °F
Wind: 10 mph from Southeast

Location: Vancouver International Air-Port

Current Time: May 25, 2015 at 9:42:31 AM

Latest Report: May 25, 2015 at 9:00 AM


Visibility: 12 mi

Pressure: 29.98 "Hg

Humidity: 82%

Dew point: 50 °F

Location of RichmondLocation

Historic Weather in Richmond — Graph

°F

Richmond temperature yesterday

Maximum temperature yesterday: 66 °F (at 6:00 PM)
Minimum temperature yesterday: 55 °F (at 12:00 AM)
Average temperature yesterday: 59 °F

Past Weeks' High & Low Weather Summary

 TemperatureHumidityPressure
High70 °F (May 18, 4:00 PM)100% (May 18, 5:00 AM)30.16 "Hg (May 18, 5:00 AM)
Low52 °F (May 11, 4:00 AM)56% (May 12, 6:00 PM)29.78 "Hg (May 21, 5:00 PM)
Average59 °F79%29.96 "Hg
* Reported May 10 8:00 AM — May 25 8:00 AM, Richmond, Weather by CustomWeather, © 2015

Note: Actual official high and low records may vary slightly from our data, if they occured in-between our weather recording intervals... More about our weather records

Advertising

Richmond weather history for previous 24 hours

 ConditionsComfort  
Time TempWeatherWind HumidityBarometerVisibility
8:00 AM
Mon, May 25
55 °FCloudy.7 mph88%29.98 "Hg12 mi
7:00 AM55 °FLight rain. Mostly cloudy.7 mph88%29.97 "Hg12 mi
6:53 AM55 °FLight rain. Mostly cloudy.5 mph88%29.97 "Hg12 mi
6:00 AM55 °FMostly cloudy.3 mph82%29.97 "Hg15 mi
5:00 AM55 °FMostly cloudy.8 mph82%29.97 "Hg15 mi
4:00 AM55 °FMostly cloudy.8 mph82%29.98 "Hg15 mi
3:00 AM55 °FOvercast.9 mph82%29.97 "Hg15 mi
2:00 AM55 °FMostly cloudy.12 mph82%29.98 "Hg15 mi
1:00 AM55 °FPassing clouds.10 mph88%29.98 "Hg15 mi
12:00 AM55 °FPassing clouds.9 mph82%29.98 "Hg15 mi
11:00 PM
Sun, May 24
57 °FPartly cloudy.10 mph82%29.99 "Hg15 mi
10:00 PM57 °FPassing clouds.7 mph77%29.98 "Hg15 mi
9:00 PM59 °FScattered clouds.7 mph77%29.98 "Hg15 mi
8:00 PM61 °FScattered clouds.10 mph72%29.98 "Hg15 mi
7:00 PM63 °FScattered clouds.9 mph73%29.98 "Hg15 mi
6:00 PM66 °FBroken clouds.3 mph68%30.00 "Hg15 mi
5:00 PM64 °FScattered clouds.13 mph73%30.01 "Hg15 mi
4:00 PM64 °FPartly sunny.12 mph73%30.03 "Hg15 mi
3:00 PM63 °FPartly sunny.12 mph77%30.05 "Hg15 mi
2:00 PM61 °FBroken clouds.8 mph77%30.06 "Hg12 mi
1:00 PM59 °FOvercast.10 mph82%30.08 "Hg12 mi
12:00 PM59 °FMostly cloudy.9 mph82%30.10 "Hg12 mi
11:00 AM59 °FMore clouds than sun.7 mph72%30.11 "Hg12 mi
10:00 AM59 °FMostly cloudy.12 mph77%30.11 "Hg12 mi
9:00 AM57 °FMostly cloudy.7 mph82%30.12 "Hg12 mi
Weather by CustomWeather, © 2015

See weather overviewHow to use our weather pages